Simultaneous Nadir Overpasses (SNOs) Predictions

Prediction of SNOs between AQUA and GOES-15 Satellite Orbit:

Table of predicted SNOs for the next 14.0 days since TLE Epoch: 11/1/2014
Index Date Time (AQUA) AQUA Lat,Lon GOES-15 Lat,Lon Distance(km) Time Diff (sec)
1 11/01/2014 22:35:23 -0.11,-134.93 -0.09,-134.97 5.55 80
2 11/03/2014 22:23:11 0.52,-131.97 -0.09,-134.91 333.94 80
3 11/04/2014 10:44:27 0.53,-137.13 0.07,-134.89 253.99 80
4 11/06/2014 10:32:14 -0.07,-134.16 0.07,-134.82 74.76 80
5 11/08/2014 10:20:01 -0.69,-131.20 0.08,-134.74 403.17 80
6 11/08/2014 22:41:24 -0.40,-136.39 -0.05,-134.71 191.14 80
7 11/10/2014 22:29:11 0.20,-133.42 -0.06,-134.62 136.90 80
8 11/11/2014 10:50:25 0.89,-138.57 0.03,-134.61 450.27 80
9 11/12/2014 22:16:57 0.82,-130.45 -0.06,-134.53 464.82 80
10 11/13/2014 10:38:11 0.26,-135.60 0.03,-134.52 122.53 80




NCC Satellite Simultaneous Nadir Overpasses (SNOs) Prediction Service
